Location: Newark
(46.7000°N, 60.6000°W)
Time: 08:10:33
(UTC+00:00)

Vanguard 3 - Pass Details

Date: 03 November 2020
Orbit: 508 x 3262 km, 33.3° (Epoch: 29 November)

Event Time Altitude Azimuth Distance (km) Brightness Sun altitude
Rises 08:01:21 0° 230° (SW) 5,462 - -28.9°
Reaches altitude 10° 08:04:41 10° 224° (SW) 4,790 - -28.3°
Exits shadow 08:07:46 20° 216° (SW) 4,274 10.4 -27.8°
Maximum altitude 08:18:19 45° 158° (SSE) 3,682 10.4 -26.0°
Drops below altitude 10° 08:36:13 10° 95° (E) 6,194 12.7 -22.9°
Sets 08:41:16 0° 90° (E) 7,137 13.5 -22.1°
